Погода в Бакчаре

Погода в Бакчаре : погода сейчас, прогноз погоды и архив. Всё, что Вы хотите узнать о погоде в Бакчаре!

Хотите узнать прогноз погоды в Бакчаре? Тогда Вам сюда: Погода в Бакчаре

Поиск расширенной информации на нашем сайте:

Другие новости

Новости СМИ2

Главная страница сайта

Новости сайта

03.07.2017

Напоминаем, что на нашем специализированном сайте Метеоцентр.Азия вы можете получить высокодетализированные автоматические прогнозы погоды по пунктам России, СНГ и мира в авиационном формате (включающие направление и скорость ветра, видимость, явления погоды, количество и форму облачности, нижнюю и верхнюю границу облачности).

Рекомендуем: лучшие русские мелодрамы смотреть

Погода в Бакчаре - сегодня

Время (UTC), дата Ветер
(°,м/с) 
Видим.   Явления Облачность Т
(°С)
Тd
(°С)
f(%) Тe
(°С)
Pmin
(гПа)
dP
(гПа)
Po
(мм)
O2
(г/м3)
Тmin Tmax R s Состояние
почвы
09 09.12.17 070 (В) 20000 м    10/10 300 м 
[St]
-12.2 -13.6 89 -12  1026.3  -1.5  759  321           
12 09.12.17 тихо ()   н/о    н/о 
-13.9 -15.6 87 -14        -11.5       
15 09.12.17 070 (В) 20000 м    ясно 
-14.6 -16.3 87 -15  1023.8  -2.1  757  324           
18 09.12.17 тихо ()   20000 м    ясно 
-17.3 -19.2 85 -17  1023.7  -0.4  757  327           
21 09.12.17 тихо ()   20000 м    ясно 
-18.7 -20.6 85 -19  1022.3  -1.4  755  328           
00 10.12.17 150 (ЮВ) 20000 м    ясно 
-14.9 -16.9 85 -15  1021.6  -0.4  755  323  -19.8      17  равномерный
сухой снег
100% 
03 10.12.17 180 (Ю) 20000 м    10/6 600 м средняя 
[Sc|Ac trans]
-11.4 -12.9 89 -13  1022.3  0.9  756  319           
06 10.12.17 200 (Ю) 20000 м  слаб. снег  10/10 300 м 
[St]
-8.9 -10 92 -9  1023.7  1.5  757  316           
09 10.12.17 030 (СВ) 20000 м  слаб. снег  10/10 300 м 
[St]
-7.4 -8.4 93 -7  1022.2  -1.4  756  314           
12 10.12.17 130 (ЮВ) 20000 м  слаб. снег  10/10 300 м 
[St]
-7 -7.9 93 -8  1022.9  0.7  756  314    -7  0.2     
15 10.12.17 110 (В) 20000 м  {снег}  10/10 600 м 
[Sc]
-6.2 -7 94 -8  1022.8  -0.1  756  313           
18 10.12.17 120 (ЮВ) 20000 м  слаб. ливневой снег  10/10 300 м кучево-дожд. 
[Cb cap]
-5.9 -6.7 94 -8  1022.5  -0.3  767  317           
21 10.12.17 190 (Ю) 20000 м  в посл. час ливневой снег  10/10 300 м кучево-дожд. 
[Cb cap]
-4.7 -5.7 93 -7  1023.1  0.7  757  311           
00 11.12.17 180 (Ю) 20000 м  {ливн. осадки}  10/10 600 м кучево-дожд. 
[Cb cap]
-6.9 -8.9 86 -10  1025.4  2.1  758  314  -7    0.9  18  равномерный
сухой снег
100% 
03 11.12.17 150 (ЮВ) 20000 м    10/5 600 м кучево-дожд., средняя 
[Cb cap|Ac As]
-10.4 -11.7 90 -12  1026.7  1.1  759  319  -10.6         
06 11.12.17 130 (ЮВ) 20000 м    9/0 средняя, верхняя 
[Ac As|Cc]
-10.7 -12 90 -13  1027.3  0.6  760  320           
09 11.12.17 060 (СВ) н/о    н/о 
-8.8 -10.6 87 -9               
12 11.12.17 тихо ()   20000 м    4/0 средняя, верхняя 
[Ac As|Cs]
-13.6 -14.2 95 -14  1027.8  0.3  760  323    -6.6       
15 11.12.17 тихо ()   20000 м    4/0 средняя 
[Ac As]
-16.4 -18.3 85 -16  1028.3  0.4  760  327           
18 11.12.17 тихо ()   20000 м  слаб. ливневой снег  10/8 300 м кучево-дожд., средняя 
[Cb cap|Ac trans]
-17.5 -19.4 85 -18  1028.4  0.1  760  329           
21 11.12.17 тихо ()   20000 м  {ливн. осадки}  6/3 600 м средняя 
[Sc|Ac trans]
-19.2 -21.4 83 -19  1029.3  0.8  761  331           
00 12.12.17 тихо ()   20000 м  слаб. ливневой снег  10/8 300 м кучево-дожд., средняя 
[Cb cap|Ac trans]
-16.3 -18.3 84 -16  1030.1  0.9  761  328  -19.8    0.2  18  равномерный
сухой снег
100% 
03 12.12.17 350 (С) 20000 м  {ливн. осадки}  9/5 600 м кучево-дожд., средняя, верхняя 
[Cb cap|Ac trans|Ci fib]
-18.8 -20.9 83 -19  1031.3  762  331  -20.7         
06 12.12.17 290 (З) 20000 м  {ливн. осадки}  10/8 600 м кучево-дожд., средняя 
[Cb cap|Ac trans]
-15.5 -17.4 85 -16  1032.6  1.4  763  327           
09 12.12.17 290 (З) 20000 м  {ливн. осадки}  10/8 600 м кучево-дожд., средняя 
[Cb cap|Ac trans]
-14.7 -16.6 85 -15  1034.5  1.9  765  327           
Время (UTC), дата Ветер
(°,м/с) 
Видим.   Явления Облачность Т
(°С)
Тd
(°С)
f(%) Тe
(°С)
Pmin
(гПа)
dP
(гПа)
Po
(мм)
O2
(г/м3)
Тmin Tmax R s Состояние
почвы

Для получения пояснительной информации подведите курсор к названию столбца.

ПОГОДА в Бакчаре - архив

Всё, что Вы хотите узнать о погоде в Бакчаре - удобно и подробно!

Выберите нужную дату (начиная с 1 января 2015* года) и нажмите кнопку "Найти".
Будут отображены архивные сводки погоды по пункту Бакчар, начиная с указанной даты.


Отображать данные в формате CSV (для использования в таблицах Excel)


Внимание! Наш архив погоды предназначен исключительно для личного некоммерческого использования в познавательных целях. Если Вам необходимы официальные справки о состоянии погоды (для производственных, юридических, коммерческих и т.п. целей), обращайтесь в органы Росгидромета.

*Примечание: данная дата относится к архиву по метеостанциям СССР (Россия, СНГ, Балтия).
Архив по метеостанциям Зарубежной Европы и Азии (кроме Китая) хранится 10 дней, по другим регионам земного шара (Китай, Африка, Америка, Австралия, Океания) - 1 день.

Бакчар - район местоположения метеостанции


Название, широта, долгота, высота метеостанции:
Бакчар 57.1°ш. 81.9°д. 110 м над ур. моря [Российская Федерация]

Дополнительная информация

В oтличие oт бoльшинства пoгoдных сайтoв мы публикуем пoдрoбную метеoинфoрмацию в детальнoм прoфессиoнальнoм фoрмате.

Характеристики температуры и влажнoсти вoздуха измеряются на высoте 2 м в тени вдали oт зданий и деревьев.
Скoрoсть ветра измеряется на высoте 10 м (на урoвне рoста челoвека скoрoсть ветра ниже в 1.5-2 раза). Если метеoстанция нахoдится в гoрoде или в лесу, тo скoрoсть ветра занижена на 2-4 м/с пo сравнению с oткрытым местoм. Скoрoсть ветра над акватoриями крупных рек и oзёр, а также на вершинах хoлмoв на 2-5 м/с выше, чем в oбычных услoвиях.
Атмoсфернoе давление в разных тoчках местнoсти мoжет значительнo oтличаться oт давления на метеoстанции, в зависимoсти oт услoвий рельефа (при пoдъёме на 10 м давление пoнижается примернo на 1 мм рт.ст.).